www.pogodaiklimat.ru

Погода и климат >> Архив погоды >> Россия >> Ростовская область >> Константиновск


ПОГОДА в Константиновске

  • Прогноз погоды в Константиновске
  • Монитор погоды в Константиновске

АРХИВ ПОГОДЫ в Константиновске

Время (UTC), дата Ветер
(напр.,м/с)
 
Видим.   Явления Облачность Т
(С)
Тd
(С)
f
(%)
Тe
(С)
Тes
(С)
Комфортность P
(гПа)
Po
(гПа)
Тmin
(С)
Tmax
(С)
R
(мм)
R24
(мм)
S
(см)
00 14.09 В 1 10 км ясно +13.3 +4.2 54 +14 +14 1022.6 1015.0
03 14.09 В 1 10 км ясно +11.2 +4.3 62 +11 +11 1022.2 1014.6 +11.1
06 14.09 Ю 1 10 км ясно +21.2 +7.0 40 +22 +28 комфорт 1022.7 1014.8 +11.0
09 14.09 Ю 2 10 км 3/3 1000 м
[Cu hum]
+26.3 +2.9 22 +25 +32 комфорт 1021.1 1013.2
12 14.09 Ю 3 10 км 6/6 600 м
[Cu med, cong]
+27.0 +3.0 21 +25 +28 комфорт 1018.8 1011.7
15 14.09 Ю 1 10 км 3/0
[Ci fib]
+24.5 +2.2 23 +23 +24 комфорт 1017.9 1010.7 +27.5
18 14.09 ЮВ 1 10 км 3/0
[Ci fib]
+18.7 +1.6 32 +20 +20 1017.7 1010.3
21 14.09 Ю 2 10 км ясно +17.9 +2.0 34 +18 +18 1018.1 1010.2
00 15.09 СЗ 2 10 км 8/0
[Ac trans]
+16.8 +3.2 40 +17 +17 1017.8 1009.9
03 15.09 С 3 10 км 8/0
[Ac trans]
+15.7 +9.0 64 +15 +15 1018.3 1010.4 +12.7
06 15.09 С 4
{11}
10 км 8/8 600 м
[Sc diur, vesp]
+17.5 +7.0 50 +17 +18 1019.5 1012.2
09 15.09 С 3
{11}
10 км 3/3 600 м
[Sc diur, vesp]
+21.7 +4.6 33 +22 +28 комфорт 1019.8 1012.5
12 15.09 СЗ 2 10 км ясно +24.2 -1.4 18 +23 +29 комфорт 1019.2 1012.0
15 15.09 С 1 10 км ясно +20.4 -1.0 24 +21 +22 комфорт 1019.4 1012.1 +24.5
18 15.09 С 1 10 км ясно +11.9 -0.3 43 +12 +12 1020.9 1013.3
21 15.09 ЮВ 1 10 км ясно +9.4 +0.2 53 +9 +9 1020.6 1013.0
00 16.09 Ю 1 10 км ясно +7.8 +4.4 79 -1 -1 1019.9 1012.2 +7.5
03 16.09 Ю 1 10 км ясно +7.5 +0.7 62 +7 +7 1020.0 1012.3 +7.3
06 16.09 Ю 2 10 км ясно +16.3 +1.0 35 +17 +21 1018.3 1010.9
09 16.09 ЮЗ 4 10 км 6/0
[Ci fib]
+23.0 -0.8 21 +22 +28 комфорт 1015.4 1008.2
12 16.09 ЮЗ 4 10 км ясно +25.0 -2.8 16 +23 +27 комфорт 1012.8 1005.6
15 16.09 З 3 10 км ясно +22.6 -2.5 19 +21 +21 комфорт 1011.4 1004.2 +25.3
18 16.09 З 1 10 км ясно +16.4 +1.4 36 +17 +17 1011.7 1004.3
21 16.09 З 1 10 км ясно +13.5 +3.6 51 +14 +14 1011.3 1003.8
00 17.09 ЮЗ 2 10 км ясно +12.3 +6.5 68 +12 +12 1010.4 1002.9
03 17.09 ЮЗ 1 10 км ясно +11.7 +6.6 71 +12 +12 1009.9 1002.4 +11.7
06 17.09 ЮЗ 4 10 км ясно +19.4 +11.9 62 +21 +24 комфорт 1009.2 1001.9 +11.5
09 17.09 ЮЗ 4
{11}
10 км 4/0
[Ac trans]
+25.4 +11.6 42 +27 +32 жарко 1007.8 1000.7
12 17.09 З 4
{11}
10 км 9/8 600 м
[Cb calv Ac trans]
+25.0 +11.2 42 +26 +27 жарко 1006.8 999.7
15 17.09 СЗ 3
{11}
10 км 9/8 600 м
[Cu Sc Ac trans]
+18.9 +11.5 62 +20 +20 1010.3 1001.0 +26.7
18 17.09 З 1 4000 м слаб. ливневой дождь 10/8 600 м
[Cb cap Ac As]
+15.0 +13.0 88 +15 +15 1011.2 1001.9
21 17.09 ЮЗ 1 4000 м дымка {ливн. осадки} 10/8 600 м
[Cb calv Ac As]
+15.1 +13.6 91 +16 +16 1011.1 1001.8
00 18.09 ЮЗ 1 4000 м дымка {ливн. осадки} 9/8 600 м
[Cu Sc Ac trans]
+15.1 +14.0 93 +16 +16 1010.8 1001.5
03 18.09 З 1 2000 м дымка 9/8 600 м
[Cu Sc Ac trans]
+13.6 +12.7 94 +14 +14 1010.8 1001.5 +13.6 2
06 18.09 ЮЗ 3 10 км 8/8 600 м
[Cu Sc]
+15.4 +11.6 78 +15 +15 1009.3 1001.9 +12.8
09 18.09 ЮЗ 4 10 км 6/6 600 м
[Cu Sc]
+21.8 +12.5 55 +24 +27 комфорт 1007.7 1000.5
12 18.09 ЮЗ 4
{13}
10 км слаб. ливневой дождь 10/10 600 м
[Cb cap]
+19.4 +16.5 83 +21 +21 комфорт 1004.0 996.8
15 18.09 ЮЗ 4
{17}
10 км гроза, ливневой дождь 10/10 600 м
[Cb cap]
+18.1 +14.4 79 +18 +18 1005.5 998.2 +23.9 6
18 18.09 З 3
{10}
10 км {гроза, ливн. осадки} 10/10 600 м
[Cu Sc]
+15.7 +10.1 69 +15 +15 1008.7 1001.3
21 18.09 З 4
{10}
10 км 6/6 600 м
[Cu Sc]
+12.9 +4.7 57 +11 +11 1011.9 1004.4
00 19.09 З 2 10 км ясно +9.1 +4.7 74 +8 +8 1013.9 1006.4
03 19.09 З 2 10 км ясно +7.3 +3.4 76 +5 +5 1015.7 1008.1 +7.3
06 19.09 З 5 10 км ясно +11.8 +4.7 62 +10 +12 1017.6 1010.1
09 19.09 З 5 10 км 4/4 600 м
[Cu med, cong]
+15.5 +4.4 48 +14 +18 1018.3 1010.9
12 19.09 З 4
{10}
10 км 6/6 600 м
[Cu med, cong]
+16.3 +3.8 43 +16 +17 1018.4 1011.0
15 19.09 З 2 10 км 3/3 600 м
[Cu med, cong]
+15.2 +3.3 45 +15 +15 1018.9 1011.4 +17.4
18 19.09 В 2 10 км 4/4 600 м
[Cu med, cong]
+10.2 +3.6 64 +9 +9 1019.9 1012.3
21 19.09 ЮВ 2 10 км ясно +9.3 +4.3 71 +8 +8 1019.6 1012.0
00 20.09 Ю 1 10 км ясно +7.3 +5.3 87 +6 +6 1019.4 1011.7
03 20.09 Ю 1 10 км 10/10 600 м
[Cu Sc]
+9.3 +6.4 82 +9 +9 1018.8 1011.2 +7.0
06 20.09 ЮЗ 1 10 км 10/0
[Ac trans Ci sp]
+11.3 +6.6 73 +11 +14 1011.3 1010.9
09 20.09 ЮЗ 2 10 км 10/0
[Ac As]
+14.3 +7.6 64 +14 +17 1017.4 1009.9
12 20.09 Ю 1 10 км 10/0
[Ac As]
+15.0 +5.1 52 +16 +18 1015.6 1008.2
15 20.09 штиль 0 10 км в посл. час ливневой дождь 10/10 600 м
[Cb calv]
+10.2 +7.8 85 +10 +10 1016.5 1009.0 +15.2 0.5
18 20.09 Ю 2 4000 м слаб. ливневой дождь 10/10 600 м
[Cb cap]
+9.1 +7.6 90 +7 +7 1016.0 1008.4

 

Местоположение метеостанции Константиновск (Ростовская область, Россия): широта 47.58 долгота 41.10 высота над уровнем моря 62 м.

В архиве по умолчанию представлена погода в Константиновске за последнюю неделю. Архивные данные за месяц целиком и за предыдущие месяцы, начиная с января 2011 года, Вы можете получить, выбрав интересующий диапазон дат из раскрывающегося списка и нажав кнопку "Ввод!".


*Определитесь, кто Вы:
робот инопланетянин человек

Внимание! Время в таблицах - всемирное. Для получения местного времени необходимо прибавить поправку, которая равна 3 ч.

Смотрите также архив погоды в соседних городах и на ближайших метеорологических станциях:

Погода в Семикаракорске (Ростовская область, Россия) (21 км)
Погода в Шахтах (Ростовская область, Россия) (64 км)
Погода в Белой Калитве (Ростовская область, Россия) (75 км)
Погода в Цимлянске (Ростовская область, Россия) (77 км)
Погода в Аэропорту Платов (Ростовская область, Россия) (89 км)
Погода в Каменск-Шахтинском (Ростовская область, Россия) (100 км)
Погода в Зерноград (Ростовская область, Россия) (100 км)
Погода в Ростове-на-Дону (Ростовская область, Россия) (102 км)
Погода в Морозовске (Ростовская область, Россия) (103 км)
Погода в Зимовниках (Ростовская область, Россия) (114 км)

Пояснения к столбцам:

Ветер - указаны скорость ветра в м/с - средняя за 10 мин, порывы в срок и между сроками (в фигурных скобках) и направление, откуда дует ветер: С - северный, СВ - северо-восточный, В - восточный, ЮВ - юго-восточный, Ю - южный, ЮЗ - юго-западный, З - западный, СЗ - северо-западный.
Видимость - горизонтальная дальность видимости в метрах или километрах. При видимости от 1 до 10 км при отсутствии осадков обычно наблюдается дымка, при ухудшении видимости до 1 км и менее - туман. В сухую погоду видимость может ухудшаться дымом, пылью или мглою.
Явления - указаны атмосферные явления, наблюдавшиеся в срок или в последний час перед сроком; фигурными скобками обозначены явления, наблюдавшиеся между сроками (за 1-3 часа до срока); квадратными скобками обозначены град или гололедные отложения с указанием их диаметра в мм.
Облачность - указаны через наклонную черту общая и нижняя облачность в баллах и высота нижней границы облаков в метрах; квадратными скобками обозначены формы облаков: Ci - перистые, Cs - перисто-слоистые, Cc - перисто-кучевые, Ac - высококучевые, As - высокослоистые, Sc - слоисто-кучевые, Ns - слоисто-дождевые, Cu - кучевые, Cb - кучево-дождевые. Подробнее классификацию облаков см. в Атласе облаков (PDF).
T - Температура воздуха - температура, измеренная на высоте 2 м над землей.
Td - Температура точки росы - температура, при понижении до которой содержащийся в воздухе водяной пар достигнет насыщения.
f - Относительная влажность воздуха - влажноcть воздуха, измеренная на высоте 2 м над землей.
Te - Эффективная температура - температура, которую ощущает одетый по сезону человек в тени. Характеристика душности погоды. При расчете учитывается влияние влажности воздуха и скорости ветра на теплоощущения человека.
Tes - Эффективная температура на солнце - температура, которую ощущает человек, с поправкой на солнечный нагрев. Характеристика знойности погоды. Зависит от высоты солнца над горизонтом, облачности и скорости ветра. Ночью, в пасмурную погоду, а также при ветре 12 м/с и более поправка равна нулю.
P - Атмосферное давление - приведенное к уровню моря атмосферное давление.
Po - Атмосферное давление - измеренное на уровне метеостанции атмосферное давление.
Tmin - Минимальная температура - минимум температуры воздуха на высоте 2 м над землей.
Tmax - Максимальная температура - максимум температуры воздуха на высоте 2 м над землей.
R - Количество осадков - Количество выпавших осадков за период времени, мм. При наведении курсора мыши на число - период времени, за который выпало указанное количество осадков.
R24 - Количество осадков - Количество выпавших осадков за 24 часа, мм.
S - Снежный покров - Высота снежного покрова, см. При наведении курсора мыши на число - состояние снежного покрова и степень покрытия местности в баллах.